Location: Unspecified
(0.0000°N, 0.0000°E)
Time: 14:31:26
(UTC+00:00)

Tiangong 2 - Visible Passes

Search period start: 17 February 2019 00:00
Search period end: 27 February 2019 00:00
Orbit: 381 x 390 km, 42.8° (Epoch: 16 February)

Date Brightness Start Highest point End Pass type
(mag) Time Alt. Az. Time Alt. Az. Time Alt. Az.
24 Feb 3.4 19:14:40 10° N 19:15:13 12° NNE 19:15:13 12° NNE visible
25 Feb 3.2 19:50:55 10° NW 19:52:23 24° WNW 19:52:23 24° WNW visible
26 Feb 1.5 18:51:46 10° NNW 18:54:46 42° NE 18:57:21 13° ESE visible
